Tracking 30743 objects as of 20-Jun-2025
HD Live streaming from Space Station
objects crossing your sky now

METEOSAT 12 (MTG I1)

Track METEOSAT 12 (MTG I1) now!
METEOSAT 12 (MTG I1) is classified as:


NORAD ID: 54743
Int'l Code: 2022-170C
Perigee: 35,789.0 km
Apogee: 35,797.6 km
Inclination: 0.7 °
Period: 1,436.1 minutes
Semi major axis: 42164 km
RCS: Unknown
Launch date: December 13, 2022
Source: European Organisation for the Exploitation of Meteorological Satellites (EUME)
Launch site: FRENCH GUIANA (FRGUI)
Your satellite tracking list
Your tracking list is empty




NASA's NSSDC Master Catalog

Two Line Element Set (TLE):
1 54743U 22170C   25171.08794881  .00000005  00000-0  00000+0 0  9990
2 54743   0.6691  35.1027 0001019  68.4791 196.3564  1.00273465  9349
Source of the keplerian elements: AFSPC